Weather History for Anchorage Merrill, AK

Change the Weather History Date:

Tuesday, March 26, 2013

  Actual Average Record
Temperature  
Mean Temperature 10 °F -  
Max Temperature 18 °F 33 °F 45 °F (2011)
Min Temperature 3 °F 18 °F 0 °F (2007)
Degree Days  
Heating Degree Days 55    
Moisture  
Dew Point -3 °F    
Average Humidity 54    
Maximum Humidity 80    
Minimum Humidity 41    
Precipitation  
Precipitation 0.00 in - - ()
Snow  
Snow 0.00 in - - ()
Snow Depth 16.00 in    
Sea Level Pressure  
Sea Level Pressure 30.00 in    
Wind  
Wind Speed 4 mph (NNE)    
Max Wind Speed 7 mph    
Max Gust Speed -    
Visibility 10 miles    
Events      
Averages and records for this station are not official NWS values.
T = Trace of Precipitation, MM = Missing Value Source: NWS Daily Summary

Daily Weather History Graph

Daily Weather History Graph

Search for Another Location

Airport:

Trip Planner

Search our weather history database for the weather conditions in past years. The results will help you decide how hot, cold, wet, or windy it might be!

Date:

Astronomy

Mar. 26, 2013 Rise Set
Actual Time 7:40 AM AKDT 8:31 PM AKDT
Civil Twilight 6:56 AM AKDT 9:15 PM AKDT
Nautical Twilight 6:02 AM AKDT 10:09 PM AKDT
Astronomical Twilight 5:01 AM AKDT 11:11 PM AKDT
Moon 8:26 PM AKDT (3/26) 7:04 AM AKDT (3/26)
Length of Visible Light 14h 18m
Length of Day
12h 50m
Full, 100% of the Moon is Illuminated
Mar 26
Full
Mar 27
Full
Apr 2
Last Quarter
Apr 10
New
Apr 18
First Quarter

Hourly Weather History & Observations

Time (AKDT) Temp. Windchill Dew Point Humidity Pressure Visibility Wind Dir Wind Speed Gust Speed Precip Events Conditions
12:53 AM 10.0 °F 0.4 °F -2.9 °F 56% 29.75 in 10.0 mi NE 5.8 mph - N/A   Mostly Cloudy
1:53 AM 8.1 °F -0.5 °F -2.9 °F 61% 29.78 in 10.0 mi NNE 4.6 mph - N/A   Mostly Cloudy
2:53 AM 10.0 °F 3.6 °F -4.0 °F 53% 29.82 in 10.0 mi NE 3.5 mph - N/A   Overcast
3:53 AM 9.0 °F 0.6 °F -6.0 °F 51% 29.85 in 10.0 mi NNE 4.6 mph - N/A   Overcast
4:53 AM 7.0 °F 0.1 °F -4.0 °F 61% 29.87 in 10.0 mi NNE 3.5 mph - N/A   Overcast
5:53 AM 7.0 °F - -5.1 °F 58% 29.89 in 10.0 mi Calm Calm - N/A   Overcast
6:53 AM 7.0 °F -4.5 °F -6.0 °F 55% 29.91 in 10.0 mi NE 6.9 mph - N/A   Overcast
7:53 AM 8.1 °F 1.4 °F -6.0 °F 53% 29.93 in 10.0 mi NNE 3.5 mph - N/A   Overcast
8:53 AM 8.1 °F -0.5 °F -6.0 °F 53% 29.95 in 10.0 mi North 4.6 mph - N/A   Overcast
9:53 AM 8.1 °F -0.5 °F -6.0 °F 53% 29.98 in 10.0 mi North 4.6 mph - N/A   Mostly Cloudy
10:53 AM 9.0 °F -2.2 °F -6.0 °F 51% 30.01 in 10.0 mi NNE 6.9 mph - N/A   Overcast
11:53 AM 10.9 °F 2.9 °F -4.0 °F 51% 30.04 in 10.0 mi NE 4.6 mph - N/A   Mostly Cloudy
12:53 PM 12.9 °F 6.9 °F -4.0 °F 47% 30.04 in 10.0 mi NNE 3.5 mph - N/A   Partly Cloudy
1:53 PM 15.1 °F - -2.9 °F 45% 30.06 in 10.0 mi Calm Calm - N/A   Partly Cloudy
2:53 PM 17.1 °F 11.7 °F -2.9 °F 41% 30.07 in 10.0 mi West 3.5 mph - N/A   Clear
3:53 PM 17.1 °F - -0.9 °F 45% 30.09 in 10.0 mi Calm Calm - N/A   Clear
4:53 PM 17.1 °F - -0.9 °F 45% 30.10 in 10.0 mi Calm Calm - N/A   Clear
5:53 PM 17.1 °F - -0.9 °F 45% 30.10 in 10.0 mi Calm Calm - N/A   Partly Cloudy
6:53 PM 17.1 °F 11.7 °F 1.0 °F 50% 30.12 in 10.0 mi West 3.5 mph - N/A   Clear
7:53 PM 16.0 °F 7.4 °F 1.0 °F 52% 30.12 in 10.0 mi West 5.8 mph - N/A   Scattered Clouds
8:53 PM 14.0 °F - 1.0 °F 56% 30.14 in 10.0 mi Calm Calm - N/A   Clear
9:53 PM 3.9 °F - -0.9 °F 80% 30.16 in 10.0 mi Calm Calm - N/A   Partly Cloudy
10:53 PM 3.9 °F -6.9 °F -4.0 °F 70% 30.16 in 10.0 mi East 5.8 mph - N/A   Partly Cloudy
11:53 PM 7.0 °F - -0.9 °F 70% 30.18 in 10.0 mi Calm Calm - N/A   Partly Cloudy